Poteau, OK

9:30 PM CDT on July 27, 2016 (GMT -0500)
Kerr

Weather History for KRKR - October, 2011

Change the Weather History Date:

Thursday, October 20, 2011

  Actual Average (KFSM) Record (KFSM)
Temperature  
Mean Temperature 47 °F 62 °F  
Max Temperature 62 °F 74 °F 88 °F (2003)
Min Temperature 32 °F 49 °F 26 °F (1989)
Degree Days  
Heating Degree Days 18 5  
Month to date heating degree days 65  
Since 1 July heating degree days 82  
Cooling Degree Days 0 2  
Month to date cooling degree days 56  
Year to date cooling degree days 2034  
Moisture  
Dew Point 32 °F    
Average Humidity 64    
Maximum Humidity 100    
Minimum Humidity 29    
Precipitation  
Precipitation 0.00 in 0.15 in 3.02 in (1984)
Month to date precipitation 2.74  
Year to date precipitation 36.15  
Sea Level Pressure  
Sea Level Pressure 30.09 in    
Wind  
Wind Speed 1 mph (NW)    
Max Wind Speed 10 mph    
Max Gust Speed -    
Visibility 10 miles    
Events      
T = Trace of Precipitation, MM = Missing Value Source: NWS Daily Summary

Daily Weather History Graph

Daily Weather History Graph

Search for Another Location

Airport or City:

Trip Planner

Search our weather history database for the weather conditions in past years. The results will help you decide how hot, cold, wet, or windy it might be!

Date:

Astronomy

Oct. 20, 2011 Rise Set
Actual Time 7:28 AM CDT 6:37 PM CDT
Civil Twilight 7:02 AM CDT 7:03 PM CDT
Nautical Twilight 6:33 AM CDT 7:32 PM CDT
Astronomical Twilight 6:03 AM CDT 8:02 PM CDT
Moon 12:30 AM CDT (10/20) 2:32 PM CDT (10/20)
Length of Visible Light 12h 00m
Length of Day
11h 09m
Last Quarter, 44% of the Moon is Illuminated
Oct 20
Last Quarter
Oct 26
New
Nov 2
First Quarter
Nov 10
Full
Nov 18
Last Quarter

Hourly Weather History & Observations

Time (CDT) Temp. Windchill Dew Point Humidity Pressure Visibility Wind Dir Wind Speed Gust Speed Precip Events Conditions
12:15 AM 37.4 °F - 32.0 °F 81% 30.04 in 10.0 mi Calm Calm - N/A   Clear
12:35 AM 37.4 °F - 32.0 °F 81% 30.05 in 10.0 mi Calm Calm - N/A   Clear
12:55 AM 35.6 °F - 32.0 °F 87% 30.06 in 10.0 mi Calm Calm - N/A   Clear
1:15 AM 35.6 °F - 33.8 °F 93% 30.06 in 10.0 mi Calm Calm - N/A   Clear
1:35 AM 35.6 °F - 32.0 °F 87% 30.06 in 10.0 mi Calm Calm - N/A   Clear
1:55 AM 35.6 °F - 32.0 °F 87% 30.07 in 10.0 mi Calm Calm - N/A   Clear
2:15 AM 35.6 °F - 32.0 °F 87% 30.07 in 10.0 mi Calm Calm - N/A   Clear
2:35 AM 35.6 °F - 32.0 °F 87% 30.07 in 10.0 mi Calm Calm - N/A   Clear
2:55 AM 33.8 °F - 32.0 °F 93% 30.07 in 10.0 mi Calm Calm - N/A   Clear
3:15 AM 35.6 °F - 32.0 °F 87% 30.07 in 10.0 mi Calm Calm - N/A   Clear
3:35 AM 35.6 °F - 32.0 °F 87% 30.06 in 10.0 mi Calm Calm - N/A   Clear
3:55 AM 35.6 °F - 32.0 °F 87% 30.06 in 10.0 mi Calm Calm - N/A   Clear
4:15 AM 33.8 °F - 32.0 °F 93% 30.06 in 10.0 mi Calm Calm - N/A   Clear
4:35 AM 33.8 °F - 32.0 °F 93% 30.06 in 10.0 mi Calm Calm - N/A   Clear
4:55 AM 33.8 °F - 32.0 °F 93% 30.06 in 10.0 mi Calm Calm - N/A   Clear
5:15 AM 33.8 °F - 32.0 °F 93% 30.06 in 10.0 mi Calm Calm - N/A   Clear
5:35 AM 32.0 °F - 32.0 °F 100% 30.07 in 10.0 mi Calm Calm - N/A   Clear
6:15 AM 32.0 °F - 30.2 °F 93% 30.07 in 10.0 mi Calm Calm - N/A   Clear
6:35 AM 32.0 °F - 30.2 °F 93% 30.08 in 10.0 mi Calm Calm - N/A   Clear
6:55 AM 32.0 °F - 30.2 °F 93% 30.09 in 10.0 mi Calm Calm - N/A   Clear
7:15 AM 32.0 °F - 32.0 °F 100% 30.09 in 10.0 mi Calm Calm - N/A   Clear
7:35 AM 32.0 °F - 30.2 °F 93% 30.09 in 10.0 mi Calm Calm - N/A   Clear
7:55 AM 32.0 °F - 30.2 °F 93% 30.11 in 10.0 mi Calm Calm - N/A   Clear
8:15 AM 33.8 °F 29.6 °F 32.0 °F 93% 30.11 in 10.0 mi SSW 4.6 mph - N/A   Clear
8:35 AM 35.6 °F 30.7 °F 32.0 °F 87% 30.13 in 10.0 mi South 5.8 mph - N/A   Clear
8:55 AM 37.4 °F - 32.0 °F 81% 30.13 in 10.0 mi Calm Calm - N/A   Clear
9:15 AM 41.0 °F - 33.8 °F 76% 30.14 in 10.0 mi Calm Calm - N/A   Clear
9:35 AM 42.8 °F - 35.6 °F 76% 30.15 in 10.0 mi Calm Calm - N/A   Clear
9:55 AM 44.6 °F - 32.0 °F 61% 30.15 in 10.0 mi Calm Calm - N/A   Clear
10:15 AM 48.2 °F - 32.0 °F 54% 30.15 in 10.0 mi Calm Calm - N/A   Clear
10:35 AM 51.8 °F - 32.0 °F 47% 30.15 in 10.0 mi Calm Calm - N/A   Clear
10:55 AM 51.8 °F - 30.2 °F 44% 30.15 in 10.0 mi Calm Calm - N/A   Clear
11:15 AM 55.4 °F - 26.6 °F 33% 30.15 in 10.0 mi West 10.4 mph - N/A   Unknown
11:55 AM 55.4 °F - 26.6 °F 33% 30.14 in 10.0 mi West 5.8 mph - N/A   Clear
12:15 PM 59.0 °F - 28.4 °F 31% 30.13 in 10.0 mi WNW 5.8 mph - N/A   Clear
12:35 PM 59.0 °F - 28.4 °F 31% 30.13 in 10.0 mi North 9.2 mph - N/A   Clear
12:55 PM 59.0 °F - 28.4 °F 31% 30.11 in 10.0 mi WNW 8.1 mph - N/A   Clear
1:35 PM 60.8 °F - 28.4 °F 29% 30.10 in 10.0 mi WNW 9.2 mph - N/A   Unknown
1:55 PM 60.8 °F - 28.4 °F 29% 30.09 in 10.0 mi West 5.8 mph - N/A   Clear
2:15 PM 60.8 °F - 28.4 °F 29% 30.08 in 10.0 mi WNW 3.5 mph - N/A   Clear
2:35 PM 60.8 °F - 28.4 °F 29% 30.07 in 10.0 mi Calm Calm - N/A   Clear
3:15 PM 62.6 °F - 30.2 °F 30% 30.06 in 10.0 mi NNW 10.4 mph - N/A   Clear
3:35 PM 62.6 °F - 30.2 °F 30% 30.06 in 10.0 mi North 5.8 mph - N/A   Clear
3:55 PM 62.6 °F - 30.2 °F 30% 30.06 in 10.0 mi NNW 9.2 mph - N/A   Clear
4:15 PM 62.6 °F - 30.2 °F 30% 30.06 in 10.0 mi North 9.2 mph - N/A   Clear
4:35 PM 62.6 °F - 30.2 °F 30% 30.06 in 10.0 mi North 6.9 mph - N/A   Clear
4:55 PM 62.6 °F - 30.2 °F 30% 30.06 in 10.0 mi North 5.8 mph - N/A   Clear
5:35 PM 62.6 °F - 30.2 °F 30% 30.06 in 10.0 mi North 3.5 mph - N/A   Clear
5:55 PM 60.8 °F - 32.0 °F 34% 30.06 in 10.0 mi North 4.6 mph - N/A   Clear
6:15 PM 60.8 °F - 32.0 °F 34% 30.06 in 10.0 mi Calm Calm - N/A   Clear
6:35 PM 59.0 °F - 32.0 °F 36% 30.06 in 10.0 mi Calm Calm - N/A   Clear
6:55 PM 55.4 °F - 35.6 °F 47% 30.07 in 10.0 mi Calm Calm - N/A   Clear
7:15 PM 53.6 °F - 35.6 °F 51% 30.08 in 10.0 mi Calm Calm - N/A   Clear
7:35 PM 51.8 °F - 37.4 °F 58% 30.08 in 10.0 mi Calm Calm - N/A   Clear
7:55 PM 51.8 °F - 37.4 °F 58% 30.09 in 10.0 mi Calm Calm - N/A   Clear
8:15 PM 50.0 °F - 37.4 °F 62% 30.10 in 10.0 mi Calm Calm - N/A   Clear
8:35 PM 46.4 °F - 37.4 °F 71% 30.11 in 10.0 mi Calm Calm - N/A   Clear
8:55 PM 46.4 °F - 39.2 °F 76% 30.11 in 10.0 mi Calm Calm - N/A   Clear
9:35 PM 44.6 °F - 37.4 °F 76% 30.13 in 10.0 mi Calm Calm - N/A   Clear
9:55 PM 42.8 °F - 35.6 °F 76% 30.14 in 10.0 mi Calm Calm - N/A   Clear
10:15 PM 42.8 °F - 37.4 °F 81% 30.14 in 10.0 mi Calm Calm - N/A   Clear
10:35 PM 42.8 °F - 37.4 °F 81% 30.15 in 10.0 mi Calm Calm - N/A   Clear
10:55 PM 41.0 °F - 37.4 °F 87% 30.15 in 10.0 mi Calm Calm - N/A   Clear
11:15 PM 41.0 °F - 37.4 °F 87% 30.15 in 10.0 mi Calm Calm - N/A   Clear
11:35 PM 41.0 °F - 37.4 °F 87% 30.15 in 10.0 mi Calm Calm - N/A   Clear
11:55 PM 41.0 °F - 35.6 °F 81% 30.15 in 10.0 mi Calm Calm - N/A   Clear